244P/Scotti (2022)

Japanese version
Home page
Updated on March 5, 2023

---------------------------------------------------------------------

* Profile

* Pictures

* Orbital Elements

Epoch 2022 Aug. 9.0 TT = JDT 2459800.5
T 2022 Nov. 17.08791 TT                                 Rudenko
q   3.9204311            (2000.0)            P               Q
n   0.09099311     Peri.   93.08574     +0.05091920     -0.99869425
a   4.8954997      Node   353.99088     +0.89992109     +0.04767433
e   0.1991765      Incl.    2.25934     +0.43306959     +0.01835636
P  10.8
From 1536 observations 2000 Nov. 29-2022 Oct. 5, mean residual 0".7.
     Nongravitational parameters A1 = +0.09, A2 = -0.0150.

* Magnitudes Graph

        m1 = 3.0 + 5 log d + 20.0 log r(t - 100)

---------------------------------------------------------------------

The orbital elements are published on M.P.E.C. 2022-T100.
The magnitudes graphs are made with Comet for Windows.

---------------------------------------------------------------------

Copyright(C) Seiichi Yoshida (comet@aerith.net). All rights reserved.